ZHONGXING-19

Last updated on Mon Jun 22 2026 00:03:07 GMT+0000 (Coordinated Universal Time)

1 54230U 22148A 26172.50531091 -.00000083 00000+0 00000+0 0 9993 2 54230 0.0171 64.7588 0002531 46.9675 143.0775 1.00272048 13422
UTC large
Height (km)
Speed (km/s)
/
Latitude / Longitude
Inclination (degrees)
Orbital Period (minutes)
Azimuth
Elevation
Range (km)
Doppler Factor

Next 0 passes for location: London (51.5072 / 0.1276)

No passes found over London.
ZHONGXING-19